When you browse on this site, cookies collect data to enhance your experience and personalize the content and advertising you see.
Visit our Privacy Policy to learn more. By continuing to use the site, you agree to this use of cookies and data.
  • In Netherlands
  • List of Countries
  • For 7 days
  • Water Temperature
  • Satellite Maps
  • Weather Map
  • Weather Widgets
  • user-avatar
    Login

    Hourly Weather Suhotskoe

    Today, 19 April, Friday

    Time Temperature Precipitation Wind Pressure Humidity
    00:00 +4°C° 0.3 mm 1 mps 748 mmHg 94%
    01:00 +3°C° 0.1 mm 1 mps 748 mmHg 94%
    02:00 +3°C° 0.1 mm 1 mps 748 mmHg 94%
    03:00 +4°C° 0 mm 1 mps 748 mmHg 91%
    04:00 +4°C° 0 mm 1 mps 748 mmHg 91%
    05:00 +4°C° 0 mm 1 mps 748 mmHg 90%
    06:00 +3°C° 0 mm 2 mps 748 mmHg 90%
    07:00 +3°C° 0 mm 3 mps 747 mmHg 86%
    08:00 +4°C° 0 mm 4 mps 747 mmHg 82%
    09:00 +3°C° 0 mm 6 mps 747 mmHg 78%
    10:00 +4°C° 0 mm 6 mps 747 mmHg 73%
    11:00 +5°C° 0 mm 6 mps 747 mmHg 68%
    12:00 +8°C° 0 mm 6 mps 747 mmHg 62%
    13:00 +8°C° 0 mm 6 mps 747 mmHg 62%
    14:00 +8°C° 0 mm 6 mps 747 mmHg 61%
    15:00 +8°C° 0 mm 6 mps 747 mmHg 61%
    16:00 +7°C° 0 mm 6 mps 747 mmHg 64%
    17:00 +5°C° 0 mm 6 mps 747 mmHg 67%
    18:00 +6°C° 0 mm 5 mps 747 mmHg 70%
    19:00 +5°C° 0 mm 5 mps 748 mmHg 71%
    20:00 +3°C° 0 mm 5 mps 748 mmHg 73%
    21:00 +2°C° 0 mm 5 mps 748 mmHg 74%
    22:00 +3°C° 0 mm 4 mps 748 mmHg 75%
    23:00 +3°C° 0 mm 4 mps 748 mmHg 75%

    Tomorrow, 20 April, Saturday

    Time Temperature Precipitation Wind Pressure Humidity
    00:00 +1°C° 0 mm 4 mps 748 mmHg 76%
    01:00 +1°C° 0 mm 4 mps 748 mmHg 76%
    02:00 +1°C° 0 mm 4 mps 748 mmHg 76%
    03:00 +2°C° 0 mm 3 mps 748 mmHg 77%
    04:00 +2°C° 0.1 mm 3 mps 748 mmHg 76%
    05:00 0°C° 0.1 mm 4 mps 748 mmHg 76%
    06:00 0°C° 0.1 mm 4 mps 748 mmHg 76%
    07:00 +1°C° 0.1 mm 4 mps 748 mmHg 74%
    08:00 +3°C° 0.1 mm 4 mps 748 mmHg 73%
    09:00 +3°C° 0.1 mm 4 mps 748 mmHg 71%
    10:00 +5°C° 0.1 mm 4 mps 748 mmHg 68%
    11:00 +6°C° 0.1 mm 4 mps 748 mmHg 64%
    12:00 +7°C° 0.1 mm 4 mps 748 mmHg 61%
    13:00 +8°C° 0 mm 3 mps 748 mmHg 60%
    14:00 +9°C° 0 mm 3 mps 748 mmHg 58%
    15:00 +9°C° 0 mm 3 mps 748 mmHg 56%
    16:00 +9°C° 0 mm 3 mps 748 mmHg 60%
    17:00 +9°C° 0 mm 2 mps 748 mmHg 63%
    18:00 +8°C° 0 mm 2 mps 749 mmHg 67%
    19:00 +7°C° 0 mm 2 mps 749 mmHg 71%
    20:00 +6°C° 0 mm 2 mps 749 mmHg 76%
    21:00 +5°C° 0 mm 2 mps 750 mmHg 80%
    22:00 +6°C° 0 mm 1 mps 750 mmHg 82%
    23:00 +5°C° 0 mm 1 mps 750 mmHg 85%

    Day after tomorrow, 21 April, Sunday

    Time Temperature Precipitation Wind Pressure Humidity
    00:00 +5°C° 0 mm 1 mps 750 mmHg 88%
    01:00 +4°C° 0 mm 1 mps 749 mmHg 88%
    02:00 +4°C° 0 mm 1 mps 749 mmHg 88%
    03:00 +4°C° 0 mm 1 mps 749 mmHg 89%
    04:00 +4°C° 0 mm 1 mps 749 mmHg 88%
    05:00 +4°C° 0 mm 1 mps 749 mmHg 88%
    06:00 +4°C° 0 mm 1 mps 749 mmHg 87%
    07:00 +5°C° 0 mm 2 mps 749 mmHg 80%
    08:00 +5°C° 0 mm 4 mps 749 mmHg 73%
    09:00 +7°C° 0 mm 5 mps 749 mmHg 66%
    10:00 +8°C° 0 mm 5 mps 749 mmHg 62%
    11:00 +10°C° 0 mm 5 mps 749 mmHg 58%
    12:00 +11°C° 0 mm 6 mps 748 mmHg 54%
    13:00 +12°C° 0 mm 5 mps 748 mmHg 55%
    14:00 +12°C° 0 mm 5 mps 748 mmHg 56%
    15:00 +12°C° 0 mm 5 mps 748 mmHg 57%
    16:00 +10°C° 0.1 mm 5 mps 748 mmHg 60%
    17:00 +10°C° 0.1 mm 4 mps 748 mmHg 62%
    18:00 +10°C° 0.1 mm 4 mps 749 mmHg 65%
    19:00 +8°C° 0 mm 4 mps 749 mmHg 67%
    20:00 +7°C° 0 mm 4 mps 749 mmHg 69%
    21:00 +6°C° 0 mm 4 mps 750 mmHg 70%
    22:00 +5°C° 0 mm 3 mps 750 mmHg 73%
    23:00 +5°C° 0 mm 3 mps 750 mmHg 75%

    22 April, Monday

    Time Temperature Precipitation Wind Pressure Humidity
    00:00 +5°C° 0 mm 3 mps 750 mmHg 78%
    01:00 +4°C° 0 mm 3 mps 750 mmHg 81%
    02:00 +4°C° 0 mm 2 mps 749 mmHg 85%
    03:00 +3°C° 0 mm 2 mps 749 mmHg 89%
    04:00 +3°C° 0 mm 2 mps 749 mmHg 88%
    05:00 +5°C° 0 mm 1 mps 750 mmHg 88%
    06:00 +5°C° 0 mm 1 mps 750 mmHg 88%
    07:00 +6°C° 0 mm 2 mps 750 mmHg 81%
    08:00 +7°C° 0 mm 3 mps 750 mmHg 74%
    09:00 +9°C° 0 mm 3 mps 750 mmHg 67%
    10:00 +10°C° 0 mm 4 mps 750 mmHg 63%
    11:00 +11°C° 0 mm 4 mps 750 mmHg 58%
    12:00 +12°C° 0 mm 4 mps 749 mmHg 54%
    13:00 +12°C° 0.1 mm 4 mps 749 mmHg 55%
    14:00 +12°C° 0.1 mm 3 mps 749 mmHg 56%
    15:00 +12°C° 0.1 mm 3 mps 749 mmHg 57%
    16:00 +12°C° 0.1 mm 3 mps 749 mmHg 60%
    17:00 +11°C° 0.1 mm 3 mps 749 mmHg 63%
    18:00 +12°C° 0.1 mm 2 mps 750 mmHg 66%
    19:00 +10°C° 0.1 mm 2 mps 750 mmHg 68%
    20:00 +9°C° 0.1 mm 2 mps 751 mmHg 69%
    21:00 +9°C° 0.1 mm 2 mps 751 mmHg 71%
    22:00 +8°C° 0 mm 2 mps 751 mmHg 75%
    23:00 +7°C° 0 mm 2 mps 752 mmHg 79%

    23 April, Tuesday

    Time Temperature Precipitation Wind Pressure Humidity
    00:00 +7°C° 0 mm 1 mps 752 mmHg 82%
    01:00 +6°C° 0 mm 1 mps 752 mmHg 85%
    02:00 +6°C° 0 mm 1 mps 752 mmHg 87%
    03:00 +5°C° 0 mm 1 mps 752 mmHg 89%
    04:00 +6°C° 0 mm 1 mps 753 mmHg 89%
    05:00 +6°C° 0 mm 1 mps 753 mmHg 88%
    06:00 +6°C° 0 mm 1 mps 753 mmHg 88%
    07:00 +8°C° 0 mm 1 mps 753 mmHg 79%
    08:00 +10°C° 0 mm 1 mps 753 mmHg 71%
    09:00 +12°C° 0 mm 1 mps 753 mmHg 63%
    10:00 +13°C° 0 mm 2 mps 753 mmHg 58%
    11:00 +13°C° 0 mm 3 mps 753 mmHg 53%
    12:00 +14°C° 0 mm 4 mps 753 mmHg 48%
    13:00 +14°C° 0 mm 3 mps 753 mmHg 47%
    14:00 +14°C° 0 mm 3 mps 753 mmHg 46%
    15:00 +16°C° 0 mm 3 mps 753 mmHg 45%
    16:00 +14°C° 0 mm 3 mps 753 mmHg 48%
    17:00 +15°C° 0 mm 2 mps 753 mmHg 51%
    18:00 +14°C° 0 mm 2 mps 753 mmHg 54%
    19:00 +13°C° 0 mm 2 mps 754 mmHg 53%
    20:00 +12°C° 0 mm 1 mps 754 mmHg 51%
    21:00 +11°C° 0 mm 1 mps 755 mmHg 50%
    22:00 +10°C° 0 mm 1 mps 755 mmHg 54%
    23:00 +10°C° 0 mm 1 mps 755 mmHg 57%

    24 April, Wednesday

    Time Temperature Precipitation Wind Pressure Humidity
    00:00 +9°C° 0 mm 1 mps 755 mmHg 61%
    01:00 +8°C° 0 mm 1 mps 755 mmHg 63%
    02:00 +8°C° 0 mm 1 mps 755 mmHg 66%
    03:00 +7°C° 0 mm 1 mps 755 mmHg 69%
    04:00 +7°C° 0 mm 1 mps 755 mmHg 69%
    05:00 +7°C° 0 mm 1 mps 755 mmHg 70%
    06:00 +7°C° 0 mm 1 mps 756 mmHg 70%
    07:00 +8°C° 0 mm 2 mps 755 mmHg 64%
    08:00 +10°C° 0 mm 2 mps 755 mmHg 59%
    09:00 +13°C° 0 mm 2 mps 755 mmHg 53%
    10:00 +14°C° 0 mm 2 mps 754 mmHg 49%
    11:00 +15°C° 0 mm 2 mps 754 mmHg 44%
    12:00 +16°C° 0 mm 2 mps 754 mmHg 40%
    13:00 +16°C° 0 mm 2 mps 753 mmHg 40%
    14:00 +16°C° 0 mm 3 mps 753 mmHg 41%
    15:00 +16°C° 0 mm 3 mps 753 mmHg 41%
    16:00 +16°C° 0 mm 2 mps 753 mmHg 45%
    17:00 +15°C° 0 mm 2 mps 753 mmHg 50%
    18:00 +14°C° 0 mm 1 mps 753 mmHg 54%
    19:00 +14°C° 0 mm 1 mps 754 mmHg 55%
    20:00 +13°C° 0 mm 1 mps 754 mmHg 56%
    21:00 +12°C° 0 mm 1 mps 755 mmHg 57%
    22:00 +11°C° 0 mm 1 mps 754 mmHg 59%
    23:00 +9°C° 0 mm 2 mps 754 mmHg 61%
    Show more